When you browse on this site, cookies collect data to enhance your experience and personalize the content and advertising you see.
Visit our Privacy Policy to learn more. By continuing to use the site, you agree to this use of cookies and data.
  • In Romania
  • List of Countries
  • For 7 days
  • Water Temperature
  • Satellite Maps
  • Weather Map
  • Weather Widgets
  • user-avatar
    Login

    Hourly Weather Umag

    Today, 17 December, Monday

    Time Temperature Precipitation Wind Pressure Humidity
    00:00 +3°C° 0.4 mm 3 mps 763 mmHg 80%
    01:00 +3°C° 0.4 mm 4 mps 763 mmHg 81%
    02:00 +3°C° 0.5 mm 3 mps 763 mmHg 81%
    03:00 +3°C° 0.5 mm 3 mps 763 mmHg 80%
    04:00 +3°C° 0.5 mm 3 mps 763 mmHg 80%
    05:00 +3°C° 0.3 mm 3 mps 763 mmHg 79%
    06:00 +3°C° 0.3 mm 3 mps 763 mmHg 79%
    07:00 +3°C° 0.3 mm 3 mps 763 mmHg 78%
    08:00 +3°C° 0.1 mm 3 mps 763 mmHg 75%
    09:00 +4°C° 0.1 mm 4 mps 764 mmHg 72%
    10:00 +4°C° 0.1 mm 4 mps 764 mmHg 69%
    11:00 +5°C° 0 mm 4 mps 764 mmHg 66%
    12:00 +5°C° 0 mm 4 mps 764 mmHg 63%
    13:00 +6°C° 0 mm 4 mps 764 mmHg 61%
    14:00 +5°C° 0 mm 4 mps 765 mmHg 63%
    15:00 +5°C° 0 mm 4 mps 765 mmHg 66%
    16:00 +4°C° 0 mm 4 mps 766 mmHg 68%
    17:00 +4°C° 0 mm 4 mps 766 mmHg 70%
    18:00 +3°C° 0 mm 4 mps 767 mmHg 71%
    19:00 +3°C° 0 mm 4 mps 768 mmHg 73%
    20:00 +3°C° 0 mm 4 mps 768 mmHg 74%
    21:00 +3°C° 0 mm 4 mps 769 mmHg 75%
    22:00 +2°C° 0 mm 3 mps 770 mmHg 76%
    23:00 +2°C° 0 mm 3 mps 770 mmHg 77%

    Tomorrow, 18 December, Tuesday

    Time Temperature Precipitation Wind Pressure Humidity
    00:00 +2°C° 0 mm 3 mps 770 mmHg 77%
    01:00 +3°C° 0 mm 2 mps 771 mmHg 78%
    02:00 +3°C° 0 mm 2 mps 771 mmHg 78%
    03:00 +3°C° 0 mm 2 mps 771 mmHg 78%
    04:00 +3°C° 0 mm 2 mps 771 mmHg 79%
    05:00 +3°C° 0 mm 2 mps 771 mmHg 79%
    06:00 +3°C° 0 mm 2 mps 772 mmHg 78%
    07:00 +3°C° 0 mm 2 mps 772 mmHg 78%
    08:00 +4°C° 0 mm 2 mps 772 mmHg 75%
    09:00 +5°C° 0 mm 2 mps 772 mmHg 71%
    10:00 +6°C° 0 mm 2 mps 772 mmHg 67%
    11:00 +7°C° 0 mm 2 mps 772 mmHg 64%
    12:00 +8°C° 0 mm 2 mps 771 mmHg 61%
    13:00 +10°C° 0 mm 1 mps 771 mmHg 58%
    14:00 +9°C° 0 mm 1 mps 771 mmHg 63%
    15:00 +8°C° 0 mm 1 mps 771 mmHg 68%
    16:00 +7°C° 0 mm 1 mps 771 mmHg 74%
    17:00 +6°C° 0 mm 1 mps 771 mmHg 75%
    18:00 +5°C° 0 mm 2 mps 771 mmHg 77%
    19:00 +4°C° 0 mm 2 mps 771 mmHg 79%
    20:00 +4°C° 0 mm 2 mps 770 mmHg 79%
    21:00 +4°C° 0 mm 2 mps 770 mmHg 80%
    22:00 +4°C° 0 mm 2 mps 770 mmHg 80%
    23:00 +3°C° 0 mm 2 mps 770 mmHg 79%

    Day after tomorrow, 19 December, Wednesday

    Time Temperature Precipitation Wind Pressure Humidity
    00:00 +3°C° 0 mm 2 mps 770 mmHg 78%
    01:00 +3°C° 0 mm 2 mps 769 mmHg 77%
    02:00 +3°C° 0 mm 2 mps 769 mmHg 75%
    03:00 +3°C° 0 mm 2 mps 768 mmHg 73%
    04:00 +3°C° 0 mm 2 mps 768 mmHg 71%
    05:00 +3°C° 0 mm 2 mps 768 mmHg 70%
    06:00 +4°C° 0 mm 1 mps 768 mmHg 69%
    07:00 +4°C° 0 mm 1 mps 767 mmHg 68%
    08:00 +5°C° 0 mm 1 mps 767 mmHg 66%
    09:00 +6°C° 0 mm 1 mps 767 mmHg 64%
    10:00 +7°C° 0 mm 1 mps 767 mmHg 62%
    11:00 +8°C° 0 mm 1 mps 767 mmHg 62%
    12:00 +9°C° 0 mm 1 mps 767 mmHg 62%
    13:00 +9°C° 0 mm 1 mps 766 mmHg 62%
    14:00 +9°C° 0 mm 1 mps 766 mmHg 67%
    15:00 +7°C° 0 mm 2 mps 766 mmHg 72%
    16:00 +6°C° 0 mm 2 mps 766 mmHg 78%
    17:00 +6°C° 0 mm 2 mps 766 mmHg 80%
    18:00 +6°C° 0 mm 2 mps 766 mmHg 82%
    19:00 +5°C° 0 mm 3 mps 766 mmHg 84%
    20:00 +7°C° 0 mm 3 mps 766 mmHg 85%
    21:00 +7°C° 0 mm 3 mps 766 mmHg 87%
    22:00 +6°C° 0 mm 4 mps 765 mmHg 89%
    23:00 +7°C° 0 mm 4 mps 765 mmHg 90%

    20 December, Thursday

    Time Temperature Precipitation Wind Pressure Humidity
    00:00 +7°C° 0 mm 4 mps 765 mmHg 90%
    01:00 +7°C° 0 mm 4 mps 765 mmHg 91%
    02:00 +7°C° 0.3 mm 4 mps 764 mmHg 91%
    03:00 +7°C° 0.3 mm 5 mps 764 mmHg 91%
    04:00 +7°C° 0.3 mm 6 mps 763 mmHg 91%
    05:00 +7°C° 2.9 mm 6 mps 763 mmHg 92%
    06:00 +7°C° 2.9 mm 6 mps 762 mmHg 92%
    07:00 +8°C° 2.9 mm 7 mps 762 mmHg 93%
    08:00 +8°C° 3.2 mm 6 mps 762 mmHg 93%
    09:00 +8°C° 3.2 mm 6 mps 762 mmHg 94%
    10:00 +8°C° 3.2 mm 6 mps 762 mmHg 94%
    11:00 +8°C° 0.9 mm 5 mps 762 mmHg 93%
    12:00 +8°C° 0.9 mm 4 mps 762 mmHg 91%
    13:00 +8°C° 0.9 mm 4 mps 761 mmHg 90%
    14:00 +8°C° 0.4 mm 4 mps 762 mmHg 90%
    15:00 +8°C° 0.4 mm 4 mps 762 mmHg 91%
    16:00 +8°C° 0.4 mm 4 mps 762 mmHg 91%
    17:00 +7°C° 0.4 mm 4 mps 762 mmHg 91%
    18:00 +8°C° 0.4 mm 3 mps 763 mmHg 91%
    19:00 +8°C° 0.4 mm 3 mps 763 mmHg 91%
    20:00 +8°C° 0.4 mm 3 mps 764 mmHg 91%
    21:00 +8°C° 0.4 mm 3 mps 764 mmHg 90%
    22:00 +7°C° 0.4 mm 2 mps 765 mmHg 90%
    23:00 +7°C° 0.3 mm 2 mps 765 mmHg 89%

    21 December, Friday

    Time Temperature Precipitation Wind Pressure Humidity
    00:00 +7°C° 0.3 mm 2 mps 766 mmHg 89%
    01:00 +7°C° 0.3 mm 2 mps 766 mmHg 88%
    02:00 +6°C° 0 mm 2 mps 766 mmHg 88%
    03:00 +6°C° 0 mm 2 mps 766 mmHg 87%
    04:00 +5°C° 0 mm 2 mps 767 mmHg 87%
    05:00 +5°C° 0 mm 2 mps 767 mmHg 86%
    06:00 +5°C° 0 mm 2 mps 767 mmHg 85%
    07:00 +6°C° 0 mm 1 mps 768 mmHg 84%
    08:00 +7°C° 0 mm 1 mps 768 mmHg 82%
    09:00 +8°C° 0 mm 1 mps 768 mmHg 81%
    10:00 +9°C° 0 mm 1 mps 768 mmHg 79%
    11:00 +9°C° 0 mm 1 mps 768 mmHg 77%
    12:00 +10°C° 0 mm 1 mps 767 mmHg 74%
    13:00 +11°C° 0 mm 1 mps 767 mmHg 72%
    14:00 +10°C° 0 mm 1 mps 767 mmHg 76%
    15:00 +9°C° 0 mm 2 mps 767 mmHg 80%
    16:00 +8°C° 0 mm 2 mps 766 mmHg 84%
    17:00 +8°C° 0 mm 2 mps 766 mmHg 85%
    18:00 +7°C° 0 mm 2 mps 766 mmHg 87%
    19:00 +7°C° 0 mm 2 mps 766 mmHg 88%
    20:00 +8°C° 0.1 mm 3 mps 766 mmHg 88%
    21:00 +8°C° 0.1 mm 3 mps 766 mmHg 88%
    22:00 +8°C° 0.1 mm 3 mps 766 mmHg 89%
    23:00 +8°C° 0 mm 3 mps 765 mmHg 89%

    22 December, Saturday

    Time Temperature Precipitation Wind Pressure Humidity
    00:00 +8°C° 0 mm 3 mps 765 mmHg 89%
    01:00 +7°C° 0 mm 2 mps 765 mmHg 90%
    02:00 +7°C° 0 mm 2 mps 765 mmHg 90%
    03:00 +7°C° 0 mm 2 mps 764 mmHg 90%
    04:00 +7°C° 0 mm 2 mps 764 mmHg 90%
    05:00 +7°C° 0 mm 2 mps 765 mmHg 90%
    06:00 +7°C° 0 mm 2 mps 765 mmHg 89%
    07:00 +7°C° 0 mm 2 mps 765 mmHg 89%
    08:00 +8°C° 0 mm 2 mps 765 mmHg 88%
    09:00 +9°C° 0 mm 2 mps 765 mmHg 88%
    10:00 +9°C° 0 mm 2 mps 766 mmHg 87%
    11:00 +10°C° 0.1 mm 2 mps 765 mmHg 87%
    12:00 +10°C° 0.1 mm 2 mps 765 mmHg 86%
    13:00 +11°C° 0.1 mm 1 mps 765 mmHg 85%
    14:00 +11°C° 0 mm 1 mps 765 mmHg 86%
    15:00 +11°C° 0 mm 1 mps 765 mmHg 88%
    16:00 +10°C° 0 mm 1 mps 765 mmHg 89%
    17:00 +10°C° 0 mm 1 mps 765 mmHg 89%
    18:00 +10°C° 0 mm 1 mps 766 mmHg 89%
    19:00 +10°C° 0 mm 1 mps 766 mmHg 90%
    20:00 +9°C° 0 mm 2 mps 766 mmHg 90%
    21:00 +9°C° 0 mm 2 mps 766 mmHg 90%
    22:00 +9°C° 0 mm 2 mps 767 mmHg 90%
    23:00 +8°C° 0 mm 2 mps 767 mmHg 90%
    Show more